This is the latest recevied weather packets stored in our database for station/object DL1GHN-6. If no packets are shown the sender has not sent any weather packets the latest 10 day(s).
| Time | Temp. | Humidity | Pressure | Rain* | Wind** | Luminosity | Snow |
|---|---|---|---|---|---|---|---|
| 1777448133 | 13.89° C | 55% | 1019.4 hPa | 0 mm | - | 466 W/m² | - |
| 1777447833 | 13.89° C | 55% | 1019.5 hPa | 0 mm | - | 446 W/m² | - |
| 1777447532 | 13.33° C | 56% | 1019.5 hPa | 0 mm | - | 404 W/m² | - |
| 1777447232 | 13.33° C | 56% | 1019.4 hPa | 0 mm | - | 380 W/m² | - |
| 1777446933 | 13.33° C | 56% | 1019.4 hPa | 0 mm | - | 385 W/m² | - |
| 1777446633 | 13.33° C | 57% | 1019.5 hPa | 0 mm | - | 128 W/m² | - |
| 1777446333 | 12.78° C | 61% | 1019.5 hPa | 0 mm | - | 84 W/m² | - |
| 1777446033 | 12.22° C | 62% | 1019.5 hPa | 0 mm | - | 176 W/m² | - |
| 1777445732 | 12.22° C | 60% | 1019.5 hPa | 0 mm | - | 200 W/m² | - |
| 1777445433 | 11.67° C | 60% | 1019.6 hPa | 0 mm | - | 83 W/m² | - |
| 1777445134 | 11.67° C | 61% | 1019.5 hPa | 0 mm | - | 58 W/m² | - |
| 1777444832 | 11.67° C | 62% | 1019.5 hPa | 0 mm | - | 86 W/m² | - |
| 1777444534 | 11.11° C | 62% | 1019.4 hPa | 0 mm | - | 58 W/m² | - |
| 1777444233 | 11.11° C | 62% | 1019.4 hPa | 0 mm | - | 56 W/m² | - |
| 1777443933 | 10.56° C | 63% | 1019.4 hPa | 0 mm | - | 56 W/m² | - |
| 1777443633 | 10.56° C | 63% | 1019.4 hPa | 0 mm | - | 54 W/m² | - |
| 1777443332 | 10.56° C | 64% | 1019.3 hPa | 0 mm | - | 53 W/m² | - |
| 1777443033 | 10.56° C | 64% | 1019.2 hPa | 0 mm | - | 53 W/m² | - |
| 1777442733 | 10.56° C | 65% | 1019.3 hPa | 0 mm | - | 58 W/m² | - |
| 1777442432 | 10° C | 64% | 1019.3 hPa | 0 mm | - | 81 W/m² | - |
| 1777442132 | 10° C | 65% | 1019.2 hPa | 0 mm | - | 70 W/m² | - |
| 1777441833 | 10° C | 67% | 1019.2 hPa | 0 mm | - | 62 W/m² | - |
| 1777441533 | 9.44° C | 66% | 1019.2 hPa | 0 mm | - | 62 W/m² | - |
| 1777441232 | 9.44° C | 67% | 1019.2 hPa | 0 mm | - | 88 W/m² | - |
| 1777440932 | 9.44° C | 67% | 1019.2 hPa | 0 mm | - | 56 W/m² | - |
* Rain latest hour (hover to see other rain measurements)
** Current wind speed in m/s (hover to see current wind gust speed)